Погода в Таре

Россия / Омская область     56°54′06″N   74°22′19″E
темп.,
°C
ветер,
м/с
пор.,
м/с
влажн.,
%
обл.,
%
осадки,
мм/ч
давл.,
гПа
погр.,
м
9 мая, вс
вс900:00+11всв366414 0.0 1019106
03:00+9всв376221 0.0 1020136
06:00+7всв37705 0.0 1020193
09:00+12всв45525 0.0 1021607
12:00+15всв45395 0.0 10211088
15:00+17всв56341 0.0 10201509
18:00+16всв57356 0.0 10211535
21:00+11всв374910 0.0 1022140
10 мая, пн
пн1000:00+8всв4115920 0.0 1023244
03:00+7в4106475 0.0 1024273
06:00+5всв397398 0.0 1025274
09:00+10всв574898 0.0 1026789
12:00+14всв463529 0.0 10261509
15:00+16всв45313 0.0 10251852
18:00+16св56345 0.0 10241936
21:00+11св23545 0.0 102526
11 мая, вт
вт1100:00+9св34640 0.0 102552
03:00+6всв37720 0.0 1026121
06:00+5св37761 0.0 1027178
09:00+11св34530 0.0 1028729
12:00+15св23403 0.0 10271377
15:00+17ссв33320 0.0 10261599
18:00+18с34290 0.0 10251706
21:00+13ссв2245100 0.0 102510
12 мая, ср
ср1200:00+10всв1148100 0.0 102510
03:00+10ююз2251100 0.0 102510
06:00+10ююз2253100 0.0 102435
09:00+14юз2443100 0.0 1023266
12:00+19ссз353994 0.0 10211561
15:00+15ссз676977 0.7 1021772
18:00+13ссз5662100 0.7 10231288
21:00+10с477090 0.0 1024730
13 мая, чт
чт1300:00+6с36905 0.0 1024218
03:00+5ссз389529 0.0 1024233
06:00+5с38934 0.0 1024272
09:00+11с33675 0.0 1024580
12:00+16ссз33467 0.0 10231168
15:00+18сз3436100 0.0 10221639
18:00+18сз4629100 0.0 10211628
21:00+14з3354100 0.0 102128